Wind_Speed
27 37 29 51 53 56 37 41 39 43 50 48 47 47 45 42 40 37 37 37 36 35 34 34 33 32 32 31 30 28 27 27 28 30 31 33 34 34 33 34 33 32 36 37 40
28 29 37 40 61 72 44 44 42 35 42 49 44 43 44 44 42 39 40 38 37 37 37 36 36 36 36 36 34 31 31 30 31 33 34 37 38 39 39 38 38 38 38 37 37
22 29 32 34 58 58 53 45 35 32 37 46 43 40 40 42 40 40 40 39 38 36 36 35 35 36 37 37 35 35 35 35 35 37 39 40 41 43 43 44 44 44 43 45 43
20 20 28 25 36 63 65 50 45 42 32 27 37 45 39 37 38 39 39 36 35 36 35 36 35 35 35 37 38 37 38 39 40 41 42 44 44 47 47 47 47 48 49 49 50
20 19 24 20 29 49 58 51 45 45 25 26 29 36 38 36 35 34 35 34 34 34 35 36 36 36 36 37 38 39 39 40 43 45 47 48 49 49 50 52 52 52 53 53 54
16 19 19 17 21 33 55 45 48 43 29 24 22 28 32 32 33 30 29 30 31 32 34 35 36 35 37 36 38 39 40 41 45 47 48 50 51 52 53 54 57 59 59 59 58
19 19 22 14 17 26 45 43 43 43 29 24 25 25 26 28 30 30 28 27 27 29 31 32 34 35 36 37 38 41 42 44 46 47 47 50 51 52 56 57 58 61 62 64 64
19 13 23 17 28 34 43 41 37 39 36 25 26 25 18 17 19 22 23 26 27 28 27 29 31 32 34 37 39 38 40 42 44 45 47 48 49 54 57 58 59 62 63 64 65
17 22 17 12 31 41 44 44 34 39 35 31 25 20 17 14 17 18 21 23 24 26 27 28 29 31 32 33 35 36 39 40 43 45 47 49 49 55 60 59 61 64 65 66 67
15 19 21 29 38 42 51 48 39 41 30 31 23 17 14 14 13 14 15 15 17 20 22 23 25 27 29 30 33 35 37 40 45 46 49 49 50 44 55 56 55 54 56 57 61
26 34 36 35 33 42 44 38 41 35 27 17 14 14 13 14 14 15 15 15 14 14 15 17 20 23 27 31 34 37 40 41 42 37 34 30 30 35 41 46 47 48 47 46 47
33 37 33 34 39 33 40 31 33 24 21 21 20 16 14 12 11 10 8 7 8 10 13 16 19 19 20 19 19 17 15 16 18 22 24 27 28 34 38 43 44 47 47 49 49
36 35 37 36 34 36 38 34 30 26 21 15 15 14 13 12 9 5 3 2 5 4 2 5 4 9 11 10 8 11 14 17 19 22 26 27 22 23 27 32 33 34 36 39 41
33 34 33 32 30 30 30 26 23 23 21 19 18 16 13 11 9 8 9 8 8 10 8 8 9 8 7 7 11 13 14 16 16 14 15 16 17 23 26 29 31 28 26 25 28
33 31 32 32 29 30 30 28 28 28 25 22 20 17 15 14 12 12 10 11 9 6 8 11 8 7 8 11 11 11 10 9 10 11 11 13 19 22 21 25 24 23 22 20 15
35 32 29 27 25 25 25 23 27 25 25 23 20 20 19 16 13 14 11 9 7 8 9 9 9 8 8 7 6 6 7 8 12 13 16 20 21 18 17 15 16 14 13 18 24
32 30 30 29 27 26 25 24 25 27 23 25 24 20 16 13 13 13 12 11 10 8 9 9 10 10 7 5 6 8 10 11 15 14 15 18 19 19 16 15 13 12 16 22 25
30 29 25 26 25 23 21 21 24 24 27 24 21 18 17 15 14 12 12 14 11 10 10 9 10 10 9 9 9 13 14 16 18 19 20 23 27 25 20 21 19 18 18 20 26
29 28 27 28 28 29 27 25 27 29 27 24 23 21 16 15 17 16 14 11 9 8 7 7 8 12 12 11 10 13 15 12 14 14 16 20 25 29 25 30 29 29 23 12 20
37 34 33 32 34 35 33 32 32 30 27 23 19 19 18 17 15 14 13 11 11 10 7 8 7 11 14 12 11 11 14 15 17 20 18 22 25 28 34 33 38 38 33 21 20
47 44 45 41 41 41 38 35 33 29 26 23 22 20 18 16 17 19 17 13 13 15 14 11 10 10 11 10 12 12 11 14 17 20 21 23 25 29 31 33 33 35 39 28 23
39 37 39 37 36 37 35 33 31 27 25 22 20 18 17 18 19 18 16 16 17 21 22 22 20 16 15 13 12 13 14 13 11 13 16 18 20 21 24 25 26 33 31 32 46
26 27 27 28 28 27 27 26 24 22 20 20 19 17 19 19 18 18 18 18 19 19 19 18 17 17 16 17 16 16 16 16 16 15 14 17 18 18 21 23 23 23 26 33 30
21 20 20 20 20 19 17 16 15 15 15 17 17 17 17 16 15 15 15 14 14 14 14 14 13 13 13 14 14 15 15 15 14 14 15 15 16 16 18 19 20 20 22 21 22
15 16 18 16 15 13 12 11 10 9 10 12 13 14 14 13 12 11 10 10 11 11 11 12 13 13 13 13 13 13 13 14 15 14 14 15 16 15 15 15 16 18 19 21 21
8 9 9 11 12 10 9 8 7 6 5 4 7 8 8 7 8 7 8 8 9 10 11 12 11 12 13 13 14 15 16 15 15 15 16 15 14 13 13 13 13 13 13 13 13
3 4 5 5 5 5 4 3 4 4 4 5 5 4 4 4 5 7 8 9 10 10 11 11 12 12 12 12 13 12 13 14 14 14 13 13 12 10 8 8 8 8 8 8 8
Wind_Direction
215 191 203 212 201 195 188 193 204 234 222 223 224 226 229 227 230 234 234 235 237 238 241 244 249 254 256 257 260 262 263 263 266 268 268 266 268 270 271 275 278 275 270 264 260
216 214 203 209 197 205 205 187 181 207 217 221 221 223 226 230 230 232 236 237 237 239 242 246 249 253 257 261 263 261 263 264 267 271 272 270 269 268 270 269 269 269 271 273 269
208 199 194 202 204 201 195 190 180 189 220 225 222 222 224 228 230 234 236 238 241 244 247 250 252 256 259 261 261 262 264 265 267 270 273 273 273 271 268 268 268 268 267 269 271
193 203 191 194 197 195 197 187 195 212 210 214 214 224 223 226 229 233 238 241 244 247 250 253 255 258 261 262 260 260 263 265 268 270 272 274 273 272 271 271 269 269 267 268 267
190 192 213 186 196 196 199 200 200 205 182 195 201 212 221 225 231 233 238 242 247 250 252 255 257 260 263 265 265 265 266 269 271 271 271 272 273 270 270 271 271 269 269 267 266
181 171 201 182 185 188 193 193 191 184 176 195 200 216 218 224 230 233 236 241 247 253 257 259 262 264 266 267 267 269 270 272 274 275 274 274 273 271 270 269 269 268 268 267 268
150 164 161 167 183 175 181 178 186 190 192 199 194 193 201 215 222 229 235 244 250 253 256 260 264 267 269 270 271 273 276 278 278 277 276 274 272 271 269 268 268 269 268 268 267
119 138 138 145 162 162 170 174 174 174 179 169 182 191 192 206 217 224 234 243 249 252 256 261 265 268 269 273 274 275 277 276 275 276 275 273 272 273 276 276 276 273 271 268 267
124 131 130 140 162 155 159 150 150 168 179 192 182 204 213 227 230 234 237 242 247 254 260 265 268 270 272 271 272 273 275 276 277 277 279 279 280 279 277 277 276 275 272 269 265
104 100 109 124 139 140 147 157 159 170 174 192 205 208 219 218 223 225 232 238 243 248 252 257 263 268 272 274 275 276 279 280 279 280 281 282 280 287 286 284 282 283 283 280 275
90 95 103 120 129 143 147 163 166 165 169 173 178 180 179 183 195 210 222 234 245 257 266 270 272 275 277 280 281 282 280 280 282 286 290 294 296 286 285 285 283 280 279 274 271
86 93 102 116 126 136 156 155 161 167 158 150 157 159 168 176 187 199 210 228 254 270 281 285 285 291 291 289 286 286 294 301 299 297 293 288 286 285 285 284 286 285 280 270 264
85 90 99 114 112 133 135 137 140 141 137 144 145 147 154 158 155 164 187 322 305 310 34 60 25 358 352 349 335 321 307 301 294 294 292 293 299 300 310 310 309 300 289 276 273
75 82 88 100 105 117 127 142 142 139 135 133 134 135 135 132 120 97 76 61 95 94 62 16 349 340 326 311 310 309 309 304 310 317 308 302 301 294 308 319 327 322 299 286 281
78 80 84 88 100 108 115 124 128 127 131 131 127 127 122 115 104 82 75 64 73 69 358 354 343 331 305 305 307 315 324 327 327 342 329 304 300 301 303 308 316 319 300 303 303
84 88 91 94 98 103 108 115 124 127 127 126 126 115 109 104 87 76 67 58 32 359 357 352 353 341 325 317 333 6 5 358 347 329 318 319 328 341 329 316 301 314 340 340 325
85 87 92 96 100 110 118 121 122 124 119 118 111 107 100 92 81 56 43 46 42 46 51 52 62 52 40 41 36 24 34 38 35 26 21 22 22 12 5 353 339 332 342 328 342
89 89 93 99 104 117 117 113 119 113 112 113 109 104 89 77 55 51 63 70 65 59 59 66 53 60 65 70 70 74 55 50 49 47 47 37 26 18 28 21 10 18 7 348 341
84 91 97 104 102 104 108 111 115 116 112 106 99 89 76 69 73 69 56 44 28 21 46 63 67 63 68 70 70 58 43 46 21 20 25 26 22 24 32 41 36 41 29 358 0
86 92 96 100 102 103 106 110 107 104 100 96 88 83 81 80 69 52 43 36 41 53 65 66 65 71 79 79 62 45 37 44 23 32 35 36 32 43 38 42 37 32 44 43 33
89 92 95 98 101 103 104 101 100 102 100 97 94 90 81 66 51 42 36 49 64 65 70 76 74 67 70 72 56 45 47 34 36 35 43 44 41 42 35 33 20 26 40 77 74
93 95 95 96 101 104 105 106 103 98 97 98 91 78 61 47 40 40 51 64 66 64 60 60 64 60 54 48 48 42 32 36 38 28 24 31 32 37 33 41 39 44 53 51 60
85 92 91 92 95 99 102 105 101 97 88 82 77 67 55 53 56 68 70 68 64 61 57 54 52 51 50 48 44 41 44 48 39 32 18 18 27 42 51 49 54 61 60 60 62
84 84 86 88 87 88 89 92 94 92 89 82 76 71 71 73 78 80 75 69 63 58 55 52 50 46 40 37 36 30 27 26 33 36 36 31 33 38 49 50 51 55 64 75 78
86 87 87 93 96 94 86 78 70 66 73 79 85 88 87 85 78 70 62 53 42 37 34 30 26 27 23 20 19 26 27 27 24 22 28 33 37 38 46 48 44 45 57 61 62
83 83 75 83 87 88 94 86 72 61 49 69 85 84 84 75 67 56 41 31 28 23 18 17 18 11 10 13 10 9 12 19 22 25 28 34 39 46 52 61 62 63 60 63 59
104 101 93 79 79 83 74 74 80 60 30 9 3 14 28 22 18 19 18 15 15 14 14 13 12 13 14 9 8 7 4 3 4 7 11 12 16 21 21 11 6 1 2 1 358
Height
5599 5610 5617 5631 5651 5663 5671 5682 5688 5692 5704 5712 5722 5732 5740 5746 5752 5758 5763 5768 5772 5776 5779 5783 5786 5789 5791 5794 5796 5798 5801 5801 5802 5803 5804 5804 5804 5805 5807 5807 5807 5808 5809 5811 5812
5593 5602 5612 5620 5637 5648 5664 5679 5680 5684 5695 5707 5716 5725 5733 5741 5747 5752 5758 5763 5766 5770 5774 5778 5780 5783 5786 5788 5790 5792 5793 5794 5795 5795 5796 5796 5796 5797 5798 5798 5799 5800 5801 5803 5804
5590 5596 5606 5613 5628 5643 5659 5670 5677 5683 5690 5702 5711 5719 5728 5736 5743 5748 5754 5758 5761 5765 5768 5772 5775 5777 5779 5781 5783 5785 5786 5787 5787 5786 5787 5788 5789 5789 5788 5788 5788 5790 5792 5793 5796
5589 5595 5601 5608 5619 5636 5649 5662 5670 5681 5691 5696 5705 5714 5723 5731 5739 5743 5749 5754 5757 5761 5764 5767 5770 5772 5774 5776 5777 5778 5779 5780 5780 5779 5780 5780 5780 5780 5780 5779 5778 5780 5780 5781 5782
5588 5594 5599 5607 5616 5627 5641 5656 5670 5681 5688 5695 5701 5710 5719 5727 5733 5739 5744 5749 5753 5756 5759 5762 5764 5766 5767 5769 5770 5770 5771 5771 5771 5770 5771 5772 5769 5770 5770 5766 5767 5768 5769 5769 5770
5587 5595 5600 5607 5616 5625 5638 5654 5666 5677 5685 5692 5701 5708 5715 5723 5729 5735 5740 5744 5747 5751 5754 5756 5758 5759 5761 5762 5763 5764 5763 5763 5763 5762 5762 5763 5760 5758 5752 5756 5756 5755 5756 5756 5758
5590 5597 5601 5609 5615 5624 5635 5653 5664 5677 5688 5692 5699 5706 5712 5719 5725 5730 5735 5739 5742 5745 5748 5750 5752 5753 5754 5754 5755 5755 5755 5754 5753 5752 5752 5751 5750 5744 5739 5743 5744 5743 5741 5741 5742
5596 5601 5605 5610 5616 5624 5638 5653 5663 5675 5686 5694 5700 5706 5712 5719 5724 5728 5732 5736 5738 5741 5742 5745 5746 5747 5747 5747 5747 5746 5746 5743 5743 5740 5740 5739 5739 5731 5729 5731 5729 5726 5726 5726 5727
5601 5603 5608 5612 5616 5627 5640 5654 5666 5676 5687 5695 5700 5707 5714 5717 5722 5726 5729 5732 5734 5736 5738 5739 5740 5740 5740 5739 5738 5737 5735 5734 5731 5730 5729 5728 5728 5718 5712 5715 5711 5706 5706 5707 5708
5609 5611 5611 5614 5624 5636 5647 5656 5665 5676 5688 5697 5703 5710 5713 5716 5720 5724 5727 5729 5731 5733 5734 5734 5734 5734 5734 5732 5731 5729 5727 5726 5722 5722 5717 5712 5714 5706 5698 5699 5695 5691 5688 5685 5683
5618 5618 5621 5627 5635 5645 5651 5661 5674 5682 5691 5698 5704 5708 5712 5716 5720 5723 5725 5726 5728 5730 5730 5730 5730 5728 5727 5725 5724 5721 5718 5715 5711 5709 5707 5701 5701 5695 5690 5685 5681 5677 5674 5670 5665
5631 5630 5632 5637 5645 5654 5662 5671 5679 5688 5695 5700 5705 5709 5713 5717 5720 5723 5725 5726 5726 5727 5726 5726 5724 5723 5720 5717 5715 5711 5709 5707 5705 5702 5699 5695 5694 5688 5684 5676 5672 5666 5659 5654 5649
5645 5644 5646 5649 5655 5662 5669 5677 5684 5692 5698 5703 5707 5712 5717 5719 5720 5722 5724 5724 5724 5724 5723 5722 5721 5718 5716 5713 5711 5709 5707 5704 5702 5698 5692 5689 5688 5682 5677 5669 5662 5653 5644 5639 5637
5658 5659 5661 5663 5668 5673 5679 5685 5691 5695 5702 5708 5711 5715 5719 5720 5722 5723 5723 5723 5722 5722 5722 5721 5719 5716 5714 5711 5709 5707 5705 5700 5697 5694 5689 5686 5684 5679 5672 5663 5655 5646 5637 5631 5628
5670 5670 5671 5677 5679 5682 5687 5692 5696 5701 5707 5713 5715 5718 5719 5722 5723 5723 5723 5722 5722 5722 5721 5720 5717 5714 5713 5710 5708 5705 5701 5698 5694 5690 5687 5683 5678 5672 5668 5661 5652 5645 5636 5629 5624
5683 5682 5683 5685 5688 5692 5696 5700 5704 5708 5711 5714 5718 5719 5721 5722 5723 5723 5723 5723 5722 5721 5719 5717 5715 5713 5711 5708 5706 5704 5701 5698 5693 5688 5685 5680 5674 5668 5660 5654 5646 5641 5633 5625 5618
5693 5695 5694 5695 5696 5698 5702 5706 5709 5711 5714 5718 5719 5721 5723 5724 5725 5724 5722 5722 5721 5721 5720 5718 5716 5713 5710 5708 5707 5704 5700 5697 5694 5687 5683 5678 5673 5665 5658 5649 5642 5636 5630 5622 5617
5702 5702 5703 5702 5703 5705 5708 5710 5713 5715 5717 5719 5722 5724 5725 5725 5724 5724 5723 5724 5723 5722 5721 5719 5717 5714 5711 5710 5707 5704 5701 5697 5693 5689 5684 5680 5674 5667 5657 5649 5642 5634 5628 5623 5616
5710 5709 5710 5711 5711 5711 5715 5716 5717 5719 5721 5723 5724 5726 5727 5728 5728 5727 5726 5726 5724 5722 5721 5718 5716 5714 5712 5709 5708 5704 5701 5699 5695 5690 5686 5681 5676 5668 5660 5653 5645 5637 5631 5625 5620
5719 5717 5717 5718 5717 5718 5720 5722 5724 5725 5726 5728 5729 5730 5731 5732 5732 5730 5729 5726 5724 5723 5721 5719 5717 5714 5712 5711 5709 5706 5702 5700 5695 5691 5686 5683 5678 5672 5666 5659 5652 5645 5639 5631 5625
5733 5730 5727 5727 5726 5726 5726 5729 5730 5731 5732 5733 5734 5735 5735 5735 5733 5732 5730 5729 5725 5724 5721 5719 5718 5717 5714 5712 5709 5707 5703 5700 5696 5693 5690 5685 5681 5675 5670 5665 5660 5654 5646 5641 5635
5745 5743 5741 5740 5739 5735 5735 5736 5736 5737 5737 5738 5739 5739 5738 5736 5734 5732 5731 5730 5728 5726 5725 5723 5720 5717 5716 5713 5711 5708 5705 5701 5699 5696 5691 5688 5685 5679 5675 5672 5669 5662 5658 5654 5647
5758 5753 5751 5749 5749 5747 5744 5743 5743 5742 5742 5742 5741 5741 5740 5738 5737 5735 5734 5733 5731 5730 5729 5727 5724 5722 5719 5718 5714 5711 5708 5704 5700 5696 5693 5690 5688 5682 5679 5675 5673 5670 5668 5664 5659
5763 5761 5759 5756 5755 5755 5753 5751 5749 5747 5746 5745 5744 5743 5743 5742 5740 5739 5737 5736 5734 5733 5731 5729 5727 5725 5722 5719 5716 5713 5710 5707 5704 5700 5697 5693 5690 5686 5683 5679 5677 5675 5672 5671 5669
5767 5766 5764 5762 5759 5758 5757 5757 5755 5753 5751 5750 5749 5747 5745 5744 5743 5742 5740 5738 5736 5734 5732 5731 5729 5726 5723 5720 5717 5715 5712 5709 5706 5703 5700 5696 5693 5690 5687 5684 5682 5679 5677 5676 5674
5770 5768 5767 5765 5764 5762 5759 5758 5758 5757 5754 5751 5750 5749 5748 5747 5745 5744 5742 5740 5738 5736 5733 5731 5729 5726 5723 5721 5718 5715 5713 5710 5708 5705 5702 5699 5696 5693 5691 5688 5686 5685 5683 5681 5679
5772 5769 5768 5767 5765 5764 5763 5761 5758 5757 5757 5756 5754 5751 5749 5747 5746 5744 5742 5741 5739 5736 5734 5731 5729 5727 5724 5721 5719 5717 5714 5712 5710 5707 5705 5702 5699 5696 5694 5692 5689 5687 5685 5682 5680